Weather History for Langdon, ND

Change the Weather History Date:

Saturday, March 15, 2014

  Actual Average (KDVL) Record (KDVL)
Temperature  
Mean Temperature 3 °F -  
Max Temperature 10 °F 33 °F 59 °F (2012)
Min Temperature -4 °F 14 °F -16 °F (1997)
Degree Days  
Heating Degree Days 62    
Moisture  
Dew Point -3 °F    
Average Humidity 74    
Maximum Humidity 85    
Minimum Humidity 62    
Precipitation  
Precipitation 0.00 in - - ()
Sea Level Pressure  
Sea Level Pressure 30.29 in    
Wind  
Wind Speed 10 mph (NE)    
Max Wind Speed 17 mph    
Max Gust Speed 21 mph    
Visibility 10 miles    
Events      
Averages and records for this station are not official NWS values.
T = Trace of Precipitation, MM = Missing Value Source: NWS Daily Summary

Daily Weather History Graph

Daily Weather History Graph

Search for Another Location

Airport:

Trip Planner

Search our weather history database for the weather conditions in past years. The results will help you decide how hot, cold, wet, or windy it might be!

Date:

Astronomy

Mar. 15, 2014 Rise Set
Actual Time 7:46 AM CDT 7:38 PM CDT
Civil Twilight 7:15 AM CDT 8:10 PM CDT
Nautical Twilight 6:38 AM CDT 8:47 PM CDT
Astronomical Twilight 6:01 AM CDT 9:24 PM CDT
Moon 6:59 PM CDT (3/15) 7:02 AM CDT (3/15)
Length of Visible Light 12h 54m
Length of Day
11h 52m
Waxing Gibbous, 99% of the Moon is Illuminated
Mar 15
Waxing Gibbous
Mar 16
Full
Mar 23
Last Quarter
Mar 30
New
Apr 7
First Quarter

Hourly Weather History & Observations

Time (CDT) Temp. Windchill Dew Point Humidity Pressure Visibility Wind Dir Wind Speed Gust Speed Precip Events Conditions
12:15 AM 6.8 °F -4.8 °F -0.4 °F 72% 30.01 in 10.0 mi NE 6.9 mph - N/A   Clear
12:35 AM 5.0 °F -8.1 °F -0.4 °F 78% 30.02 in 10.0 mi NNE 8.1 mph - N/A   Clear
12:55 AM 5.0 °F -8.1 °F -0.4 °F 78% 30.03 in 10.0 mi NNE 8.1 mph - N/A   Clear
1:15 AM 5.0 °F -10.0 °F -0.4 °F 78% 30.02 in 10.0 mi NNE 10.4 mph - N/A   Clear
1:35 AM 5.0 °F -9.1 °F -0.4 °F 78% 30.03 in 10.0 mi NE 9.2 mph - N/A   Clear
1:55 AM 5.0 °F -10.0 °F -2.2 °F 72% 30.04 in 10.0 mi NE 10.4 mph - N/A   Clear
2:15 AM 5.0 °F -8.1 °F -2.2 °F 72% 30.05 in 10.0 mi NNE 8.1 mph - N/A   Clear
2:35 AM 3.2 °F -9.1 °F -2.2 °F 78% 30.06 in 10.0 mi NNE 6.9 mph - N/A   Clear
2:55 AM 3.2 °F -11.3 °F -2.2 °F 78% 30.06 in 10.0 mi NE 9.2 mph - N/A   Clear
3:15 AM 3.2 °F -12.2 °F -2.2 °F 78% 30.07 in 10.0 mi NNE 10.4 mph - N/A   Clear
3:35 AM 1.4 °F -15.3 °F -2.2 °F 85% 30.07 in 10.0 mi NNE 11.5 mph - N/A   Clear
3:55 AM 1.4 °F -16.9 °F -2.2 °F 85% 30.07 in 10.0 mi NE 13.8 mph - N/A   Clear
4:15 AM 1.4 °F -17.6 °F -4.0 °F 78% 30.07 in 10.0 mi NE 15.0 mph - N/A   Clear
4:35 AM 1.4 °F -16.9 °F -4.0 °F 78% 30.08 in 10.0 mi NNE 13.8 mph - N/A   Clear
4:55 AM 1.4 °F -17.6 °F -4.0 °F 78% 30.09 in 10.0 mi NNE 15.0 mph - N/A   Scattered Clouds
5:15 AM 1.4 °F -16.9 °F -4.0 °F 78% 30.10 in 10.0 mi NNE 13.8 mph - N/A   Overcast
5:35 AM 1.4 °F -16.9 °F -4.0 °F 78% 30.12 in 10.0 mi NNE 13.8 mph 18.4 mph N/A   Overcast
5:55 AM -0.4 °F -19.2 °F -4.0 °F 85% 30.13 in 10.0 mi NE 13.8 mph 18.4 mph N/A   Scattered Clouds
6:15 AM -0.4 °F -18.4 °F -5.8 °F 78% 30.14 in 10.0 mi NNE 12.7 mph - N/A   Partly Cloudy
6:35 AM -0.4 °F -17.6 °F -5.8 °F 78% 30.15 in 10.0 mi NE 11.5 mph - N/A   Mostly Cloudy
6:55 AM -0.4 °F -17.6 °F -5.8 °F 78% 30.15 in 10.0 mi NE 11.5 mph - N/A   Partly Cloudy
7:15 AM -0.4 °F -15.7 °F -5.8 °F 78% 30.17 in 10.0 mi NE 9.2 mph - N/A   Clear
7:35 AM -0.4 °F -16.7 °F -7.6 °F 72% 30.18 in 10.0 mi NNE 10.4 mph - N/A   Clear
7:55 AM -0.4 °F -19.2 °F -7.6 °F 72% 30.19 in 10.0 mi NNE 13.8 mph - N/A   Partly Cloudy
8:15 AM -0.4 °F -17.6 °F -7.6 °F 72% 30.21 in 10.0 mi NE 11.5 mph - N/A   Mostly Cloudy
8:35 AM -0.4 °F -16.7 °F -5.8 °F 78% 30.22 in 10.0 mi NNE 10.4 mph - N/A   Mostly Cloudy
8:55 AM -0.4 °F -19.2 °F -4.0 °F 85% 30.23 in 10.0 mi NNE 13.8 mph - N/A   Overcast
9:15 AM 1.4 °F -17.6 °F -4.0 °F 78% 30.24 in 10.0 mi NNE 15.0 mph - N/A   Overcast
9:35 AM 1.4 °F -16.9 °F -4.0 °F 78% 30.26 in 10.0 mi NNE 13.8 mph - N/A   Mostly Cloudy
9:55 AM 3.2 °F -14.6 °F -4.0 °F 72% 30.27 in 10.0 mi NNE 13.8 mph - N/A   Clear
10:15 AM 1.4 °F -18.8 °F -4.0 °F 78% 30.28 in 10.0 mi NNE 17.3 mph - N/A   Clear
10:35 AM 3.2 °F -15.9 °F -4.0 °F 72% 30.29 in 10.0 mi NNE 16.1 mph - N/A   Clear
10:55 AM 3.2 °F -16.5 °F -4.0 °F 72% 30.29 in 10.0 mi NNE 17.3 mph - N/A   Clear
11:15 AM 5.0 °F -13.6 °F -4.0 °F 66% 30.30 in 10.0 mi NNE 16.1 mph - N/A   Clear
11:35 AM 5.0 °F -13.6 °F -4.0 °F 66% 30.31 in 10.0 mi NNE 16.1 mph - N/A   Clear
11:55 AM 5.0 °F -13.0 °F -4.0 °F 66% 30.32 in 10.0 mi NNE 15.0 mph - N/A   Clear
12:15 PM 6.8 °F -10.0 °F -2.2 °F 67% 30.33 in 10.0 mi NE 13.8 mph 19.6 mph N/A   Clear
12:35 PM 6.8 °F -9.3 °F -2.2 °F 67% 30.34 in 10.0 mi NE 12.7 mph - N/A   Clear
12:55 PM 8.6 °F -7.0 °F -2.2 °F 62% 30.35 in 10.0 mi NE 12.7 mph 20.7 mph N/A   Clear
1:15 PM 8.6 °F -7.7 °F -0.4 °F 67% 30.36 in 10.0 mi ENE 13.8 mph - N/A   Clear
1:35 PM 8.6 °F -6.3 °F -0.4 °F 67% 30.37 in 10.0 mi NE 11.5 mph - N/A   Clear
1:55 PM 8.6 °F -6.3 °F -0.4 °F 67% 30.37 in 10.0 mi NE 11.5 mph 18.4 mph N/A   Clear
2:15 PM 8.6 °F -7.0 °F -0.4 °F 67% 30.38 in 10.0 mi NE 12.7 mph 18.4 mph N/A   Clear
2:35 PM 8.6 °F -8.3 °F -0.4 °F 67% 30.38 in 10.0 mi NNE 15.0 mph - N/A   Clear
2:55 PM 8.6 °F -6.3 °F -0.4 °F 67% 30.40 in 10.0 mi NE 11.5 mph 18.4 mph N/A   Clear
3:15 PM 10.4 °F -4.1 °F -0.4 °F 62% 30.40 in 10.0 mi NNE 11.5 mph 17.3 mph N/A   Clear
3:35 PM 10.4 °F -4.1 °F -0.4 °F 62% 30.41 in 10.0 mi NNE 11.5 mph - N/A   Clear
3:55 PM 10.4 °F -5.4 °F -0.4 °F 62% 30.42 in 10.0 mi NNE 13.8 mph - N/A   Clear
4:15 PM 10.4 °F -2.4 °F -0.4 °F 62% 30.42 in 10.0 mi NNE 9.2 mph - N/A   Clear
4:35 PM 10.4 °F -3.3 °F -0.4 °F 62% 30.42 in 10.0 mi NNE 10.4 mph - N/A   Clear
4:55 PM 8.6 °F -6.3 °F -0.4 °F 67% 30.42 in 10.0 mi NNE 11.5 mph - N/A   Clear
5:15 PM 8.6 °F -6.3 °F -0.4 °F 67% 30.42 in 10.0 mi NNE 11.5 mph - N/A   Clear
5:35 PM 8.6 °F -4.7 °F -0.4 °F 67% 30.44 in 10.0 mi North 9.2 mph - N/A   Clear
5:55 PM 8.6 °F -4.7 °F -0.4 °F 67% 30.44 in 10.0 mi North 9.2 mph - N/A   Clear
6:15 PM 8.6 °F -5.5 °F -0.4 °F 67% 30.44 in 10.0 mi NE 10.4 mph - N/A   Clear
6:35 PM 6.8 °F -7.8 °F -0.4 °F 72% 30.44 in 10.0 mi NE 10.4 mph - N/A   Clear
6:55 PM 6.8 °F -7.8 °F -2.2 °F 67% 30.45 in 10.0 mi NNE 10.4 mph - N/A   Clear
7:15 PM 6.8 °F -6.9 °F -2.2 °F 67% 30.45 in 10.0 mi NNE 9.2 mph - N/A   Clear
7:35 PM 5.0 °F -8.1 °F -2.2 °F 72% 30.45 in 10.0 mi NNE 8.1 mph - N/A   Clear
7:55 PM 3.2 °F -6.2 °F -2.2 °F 78% 30.46 in 10.0 mi NNE 4.6 mph - N/A   Clear
8:15 PM 3.2 °F -9.1 °F -2.2 °F 78% 30.46 in 10.0 mi NE 6.9 mph - N/A   Clear
8:35 PM 1.4 °F -9.9 °F -2.2 °F 85% 30.46 in 10.0 mi NE 5.8 mph - N/A   Clear
8:55 PM 1.4 °F -9.9 °F -4.0 °F 78% 30.46 in 10.0 mi ENE 5.8 mph - N/A   Clear
9:15 PM 1.4 °F -9.9 °F -4.0 °F 78% 30.46 in 10.0 mi ENE 5.8 mph - N/A   Clear
9:35 PM -0.4 °F -12.0 °F -4.0 °F 85% 30.46 in 10.0 mi ENE 5.8 mph - N/A   Clear
9:55 PM -0.4 °F -12.0 °F -4.0 °F 85% 30.46 in 10.0 mi ENE 5.8 mph - N/A   Clear
10:15 PM -0.4 °F -8.3 °F -4.0 °F 85% 30.47 in 10.0 mi East 3.5 mph - N/A   Clear
10:35 PM -0.4 °F -10.4 °F -5.8 °F 78% 30.46 in 10.0 mi ESE 4.6 mph - N/A   Clear
10:55 PM -2.2 °F -12.5 °F -7.6 °F 78% 30.47 in 10.0 mi ESE 4.6 mph - N/A   Clear
11:15 PM -2.2 °F -12.5 °F -7.6 °F 78% 30.46 in 10.0 mi ESE 4.6 mph - N/A   Clear
11:35 PM -4.0 °F -12.4 °F -7.6 °F 85% 30.45 in 10.0 mi SE 3.5 mph - N/A   Clear
11:55 PM -2.2 °F -14.2 °F -7.6 °F 78% 30.45 in 10.0 mi SE 5.8 mph - N/A   Clear